Location: Breitenfeld
(46.8500°N, 15.6333°E)
Time: 18:48:55
(UTC+00:00)

Meteor 2-10 Rocket - Pass Details

Date: 09 April 2020
Orbit: 734 x 884 km, 81.2° (Epoch: 23 May)

Event Time Altitude Azimuth Distance (km) Brightness Sun altitude
Exits shadow 20:33:52 75° 210° (SSW) 823 3.5 -26.4°
Maximum altitude 20:34:20 85° 280° (W) 803 3.5 -26.5°
Drops below altitude 10° 20:39:49 10° 10° (N) 2,423 6.5 -27.1°
Sets 20:42:17 0° 11° (NNE) 3,384 7.4 -27.3°
